www.pogodaiklimat.ru

Погода и климат >> Архив погоды >> Россия >> Коми >> Елецкая


ПОГОДА в Елецкой

  • Прогноз погоды в Елецкой
  • Монитор погоды в Елецкой

АРХИВ ПОГОДЫ в Елецкой

Время (UTC), дата Ветер
(напр.,м/с)
 
Видим.   Явления Облачность Т
(С)
Тd
(С)
f
(%)
Тe
(С)
Тes
(С)
Комфортность P
(гПа)
Po
(гПа)
Тmin
(С)
Tmax
(С)
R
(мм)
R24
(мм)
S
(см)
06 13.06 СЗ 2 20 км {снег} 9/6 630 м
[Sc Ac trans]
+0.9 -1.6 83 -3 -0 999.2 985.2
09 13.06 С 6
{12}
20 км {ливн. осадки} 9/8 720 м
[Cb cap Ac lent]
+1.9 -4.0 65 -4 -3 1000.6 986.7
12 13.06 СЗ 5
{13}
20 км {ливн. осадки} 10/8 800 м
[Cb cap Ac trans]
+0.8 -4.4 68 -5 -4 1001.7 987.7
15 13.06 СЗ 3
{11}
20 км 10/6 750 м
[Sc Ac trans]
+0.1 -4.1 73 -4 -4 1001.7 987.6 +2.1 1
18 13.06 СЗ 2
{11}
н/о н/о -1.0 -3.9 81 -5 -5 1001.6 987.5
21 13.06 З 5 н/о н/о -2.3 -3.1 94 -9 -9 1000.8 986.7
00 14.06 СЗ 3
{10}
н/о н/о -2.3 -3.1 94 -8 -8 1000.5 986.4
03 14.06 З 5-10
{11}
н/о {ливн. осадки} н/о -1.9 -3.9 86 -8 -8 1001.6 987.5 -2.4 3 5
06 14.06 СЗ 3
{11}
20 км {ливн. осадки} 10/10 540 м
[Cb cap]
+0.4 -3.0 78 -4 -4 1003.0 989.0
09 14.06 СЗ 4 20 км {ливн. осадки} 10/10 570 м
[Cb cap]
+2.7 -1.2 75 -2 -2 1003.3 989.4
12 14.06 СЗ 4
{10}
20 км {ливн. осадки} 9/8 570 м
[Cb cap Ac trans]
+3.3 +0.5 82 -1 -1 1003.6 989.7
15 14.06 СЗ 5
{10}
20 км 10/10 540 м
[Cb cap]
+3.2 +0.1 80 -2 -2 1002.9 989.0 +4.2 0.6
18 14.06 З 3 н/о н/о +1.2 -0.4 89 -3 -3 1002.8 988.8
21 14.06 З 2 н/о н/о +0.4 +0.3 99 -3 -3 1001.7 987.7
00 15.06 ЮЗ 3 н/о н/о +0.9 +0.7 99 -4 -4 999.9 986.0
03 15.06 ЮЗ 5 4000 м слаб. ливневой дождь 10/10 480 м
[Cb cap]
+2.3 +1.3 93 -3 -3 998.7 984.9 +0.2 1 0
06 15.06 ЮЗ 5 4000 м слаб. ливневой дождь 10/10 450 м
[Cb cap]
+3.2 +1.5 89 -2 -2 998.7 984.9
09 15.06 З 3 4000 м слаб. ливневой дождь 10/10 570 м
[Cb cap]
+4.4 +2.9 90 +1 +1 998.9 985.1
12 15.06 З 2 20 км в посл. час ливневой дождь 10/8 660 м
[Cb cap Ac trans]
+4.6 +2.5 86 +2 +2 999.3 985.5
15 15.06 ЮЗ 2 20 км 10/6 750 м
[Cb cap Ac trans]
+4.0 +1.3 83 +1 +1 999.8 986.0 +5.6 2
18 15.06 З 1 н/о н/о +2.7 +1.1 89 +1 +1 1000.0 986.1
21 15.06 З 2 н/о н/о +1.3 +0.5 94 -2 -2 999.5 985.6
00 16.06 З 2 н/о н/о +1.0 -0.1 92 -3 -3 999.9 985.9
03 16.06 ЮЗ 3 20 км 10/8 570 м
[Cb cap Ac trans]
+2.5 -0.8 79 -2 -1 999.5 985.6 +0.9 0.4 0
06 16.06 ЮЗ 5 50 км 9/8 630 м
[Cb cap Ac trans]
+5.0 -0.9 66 +1 +2 998.6 984.9
09 16.06 ЮЗ 5 50 км 9/6 700 м
[Cb cap Ac trans Ci fib]
+6.3 +0.5 66 +2 +4 998.2 984.6
12 16.06 Ю 5
{10}
50 км 9/8 660 м
[Cb cap Ac trans]
+6.0 +1.0 70 +2 +2 997.8 984.1
15 16.06 Ю 4 10 км слаб. ливневой дождь 10/10 570 м
[Cb cap]
+5.8 +2.7 80 +2 +2 997.0 983.3 +7.2
18 16.06 Ю 5 н/о н/о +4.2 +2.4 88 -1 -1 995.8 982.1
21 16.06 ЮЗ 5
{11}
н/о н/о +3.2 +2.2 93 -2 -2 994.2 980.4
00 17.06 ЮЗ 3 н/о н/о +1.0 +0.8 99 -4 -4 995.4 981.5
03 17.06 ЮЗ 5 20 км слаб. ливневой дождь 10/10 600 м
[Cb cap]
+2.6 +1.6 93 -3 -3 995.1 981.3 +0.9 3 0
06 17.06 ЮЗ 6 4000 м слаб. ливневой дождь 10/10 630 м
[Cb cap]
+4.4 +2.1 85 -1 -1 995.3 981.6
09 17.06 З 3 4000 м слаб. ливневой дождь 10/10 660 м
[Cb cap]
+5.0 +1.8 80 +2 +2 996.8 983.1
12 17.06 ЮЗ 3
{10}
4000 м слаб. ливневой дождь 10/10 570 м
[Cb cap]
+3.7 +1.9 88 -0 -0 997.9 984.1
15 17.06 ЮЗ 4 20 км {ливн. осадки} 9/6 720 м
[Sc Ac trans]
+4.9 +2.2 83 +1 +1 998.4 984.7 +5.5 1
18 17.06 ЮЗ 4 н/о н/о +3.4 +1.7 89 -1 -1 998.0 984.1
21 17.06 ЮЗ 3 н/о н/о +1.6 +0.7 94 -3 -3 997.4 983.5
00 18.06 ЮЗ 4 н/о н/о +0.7 +0.7 100 -5 -5 997.4 982.8
03 18.06 З 3 20 км 9/6 800 м
[Sc Ac trans]
+2.9 +1.7 92 -1 -0 996.2 982.4 +0.3 3 0
06 18.06 ЮЗ 4 4000 м слаб. ливневой дождь 9/6 630 м
[Cb cap Ac trans]
+4.4 +1.1 79 0 +2 996.5 982.7
09 18.06 З 3 20 км {ливн. осадки} 9/9 700 м
[Cb cap]
+5.3 +1.1 74 +2 +3 997.3 983.6
12 18.06 З 4 4000 м слаб. ливневой дождь 10/10 660 м
[Cb cap]
+2.6 +0.9 89 -2 -2 998.6 984.8
15 18.06 ЮЗ 5 4000 м слаб. ливневой дождь 9/9 630 м
[Cb cap]
+2.8 +1.6 92 -3 -3 998.6 984.8 +5.6 2
18 18.06 З 3 4000 м слаб. ливневой дождь 10/10 570 м
[Cb cap]
+1.6 +0.7 94 -3 -3 998.8 984.9
21 18.06 З 2 н/о н/о +0.8 -0.1 94 -3 -3 999.2 985.2
00 19.06 З 3 н/о н/о +0.6 -0.4 93 -4 -4 1000.0 986.0
03 19.06 З 4 10 км слаб. ливневой снег 10/10 480 м
[Cb cap]
+1.4 +0.1 91 -4 -4 1000.5 986.5 +0.1 2 0
06 19.06 З 4 10 км слаб. ливневой снег 10/10 500 м
[Cb cap]
+2.6 +0.6 87 -2 -2 1001.1 987.2
09 19.06 СЗ 2 4000 м слаб. ливневой снег 10/10 500 м
[Cb cap]
+2.2 +0.9 91 -1 -1 1002.6 988.7
12 19.06 З 3 20 км {ливн. осадки} 10/10 500 м
[Cb cap Ac trans]
+3.6 +0.5 80 -0 -0 1003.8 990.0
15 19.06 З 3 10 км слаб. ливневой дождь 9/8 540 м
[Cb cap Ac trans]
+3.2 +1.6 89 -1 -1 1004.7 990.8 +4.1 2
18 19.06 ЮЗ 2 20 км {ливн. осадки} 10/10 570 м
[Cb cap]
+2.4 +0.4 87 -1 -1 1005.3 991.3
21 19.06 З 2 н/о н/о +1.4 +0.6 94 -2 -2 1005.3 991.2
00 20.06 З 3 н/о н/о +2.0 -0.3 85 -2 -2 1005.6 991.6
03 20.06 ЮЗ 4 20 км 10/6 700 м
[Sc Ac trans]
+3.3 +0.3 81 -1 -1 1005.0 991.1 +1.2 0.3 0

 

Местоположение метеостанции Елецкая (Коми, Россия): широта 67.05 долгота 64.07 высота над уровнем моря 115 м.

В архиве по умолчанию представлена погода в Елецкой за последнюю неделю. Архивные данные за месяц целиком и за предыдущие месяцы, начиная с января 2011 года, Вы можете получить, выбрав интересующий диапазон дат из раскрывающегося списка и нажав кнопку "Ввод!".


*Определитесь, кто Вы:
робот инопланетянин человек

Внимание! Время в таблицах - всемирное. Для получения местного времени необходимо прибавить поправку, которая равна 3 ч.

Смотрите также архив погоды в соседних городах и на ближайших метеорологических станциях:

Погода в Воркуте (Коми, Россия) (48 км)
Погода в Харпе (Ямало-Ненецкий АО, Россия) (80 км)
Погода в Салехарде (Ямало-Ненецкий АО, Россия) (128 км)
Погода в Питляре (Ямало-Ненецкий АО, Россия) (159 км)
Погода в Петруни (Коми, Россия) (160 км)
Погода в Белоярске (Ямало-Ненецкий АО, Россия) (178 км)
Погода в Мужах (Ямало-Ненецкий АО, Россия) (188 км)
Погода в Харуте (Ненецкий АО, Россия) (199 км)
Погода в Полуе (Ямало-Ненецкий АО, Россия) (233 км)
Погода в Усть-Каре (Ненецкий АО, Россия) (247 км)

Пояснения к столбцам:

Ветер - указаны скорость ветра в м/с - средняя за 10 мин, порывы в срок и между сроками (в фигурных скобках) и направление, откуда дует ветер: С - северный, СВ - северо-восточный, В - восточный, ЮВ - юго-восточный, Ю - южный, ЮЗ - юго-западный, З - западный, СЗ - северо-западный.
Видимость - горизонтальная дальность видимости в метрах или километрах. При видимости от 1 до 10 км при отсутствии осадков обычно наблюдается дымка, при ухудшении видимости до 1 км и менее - туман. В сухую погоду видимость может ухудшаться дымом, пылью или мглою.
Явления - указаны атмосферные явления, наблюдавшиеся в срок или в последний час перед сроком; фигурными скобками обозначены явления, наблюдавшиеся между сроками (за 1-3 часа до срока); квадратными скобками обозначены град или гололедные отложения с указанием их диаметра в мм.
Облачность - указаны через наклонную черту общая и нижняя облачность в баллах и высота нижней границы облаков в метрах; квадратными скобками обозначены формы облаков: Ci - перистые, Cs - перисто-слоистые, Cc - перисто-кучевые, Ac - высококучевые, As - высокослоистые, Sc - слоисто-кучевые, Ns - слоисто-дождевые, Cu - кучевые, Cb - кучево-дождевые. Подробнее классификацию облаков см. в Атласе облаков (PDF).
T - Температура воздуха - температура, измеренная на высоте 2 м над землей.
Td - Температура точки росы - температура, при понижении до которой содержащийся в воздухе водяной пар достигнет насыщения.
f - Относительная влажность воздуха - влажноcть воздуха, измеренная на высоте 2 м над землей.
Te - Эффективная температура - температура, которую ощущает одетый по сезону человек в тени. Характеристика душности погоды. При расчете учитывается влияние влажности воздуха и скорости ветра на теплоощущения человека.
Tes - Эффективная температура на солнце - температура, которую ощущает человек, с поправкой на солнечный нагрев. Характеристика знойности погоды. Зависит от высоты солнца над горизонтом, облачности и скорости ветра. Ночью, в пасмурную погоду, а также при ветре 12 м/с и более поправка равна нулю.
P - Атмосферное давление - приведенное к уровню моря атмосферное давление.
Po - Атмосферное давление - измеренное на уровне метеостанции атмосферное давление.
Tmin - Минимальная температура - минимум температуры воздуха на высоте 2 м над землей.
Tmax - Максимальная температура - максимум температуры воздуха на высоте 2 м над землей.
R - Количество осадков - Количество выпавших осадков за период времени, мм. При наведении курсора мыши на число - период времени, за который выпало указанное количество осадков.
R24 - Количество осадков - Количество выпавших осадков за 24 часа, мм.
S - Снежный покров - Высота снежного покрова, см. При наведении курсора мыши на число - состояние снежного покрова и степень покрытия местности в баллах.